Location: Izdebno
(52.6670°N, 16.2170°E)
Time: 04:22:15
(UTC+02:00)

Transit 2A - Pass Details

Date: 03 March 2024
Orbit: 596 x 956 km, 66.7° (Epoch: 21 April)

Event Time Altitude Azimuth Distance (km) Brightness Sun altitude
Rises 21:54:58 0° 299° (WNW) 2,871 9.9 -36.4°
Reaches altitude 10° 21:58:11 10° 324° (NW) 2,003 8.9 -36.8°
Enters shadow 22:00:01 14° 348° (NNW) 1,774 8.4 -36.9°
Maximum altitude 22:00:39 14° 358° (N) 1,764 - -37.0°
Drops below altitude 10° 22:03:13 10° 31° (NNE) 2,086 - -37.3°
Sets 22:06:41 0° 56° (NE) 3,074 - -37.6°
